[[{"header":{"parameterUnit":"m.s-1","parameterCategory":1,"la1":30.2992,"la2":30.254,"lo1":-89.0895,"lo2":-89.0443,"dy":0.0025,"dx":0.0025,"nx":19,"ny":19,"refTime":"2026-03-25T09:00:00:Z","depth":0,"parameterNumber":2,"parameterNumberName":"U-component_of_WINDS"},"data":[0,0,0,-2.4727,-2.4729,-2.4799,-2.48,-2.4915,-2.4916,0,0,0,0,0,0,0,0,0,0,0,-2.4716,-2.4717,-2.4727,-2.4729,-2.4799,-2.48,-2.4915,-2.4916,0,0,0,0,0,0,0,0,0,0,0,-2.4715,-2.4717,-2.4718,-2.473,-2.4799,-2.48,-2.4915,-2.4854,0,0,0,0,0,0,0,0,0,0,-2.4782,-2.4778,-2.4716,-2.4718,-2.473,-2.4799,-2.48,-2.4851,-2.4858,-2.4892,0,-2.492,0,-2.492,-2.4925,-2.4926,0,0,0,-2.4724,-2.4773,-2.4783,-2.4718,-2.4731,-2.4799,-2.4766,-2.4855,-2.4863,-2.4902,-2.4921,-2.4925,-2.4922,-2.4926,-2.4927,-2.513,-2.5131,0,0,-2.472,-2.4735,-2.4777,-2.4788,-2.4772,-2.4764,-2.4769,-2.4859,-2.4884,-2.4922,-2.4928,-2.4924,-2.4927,-2.4928,-2.5129,-2.5131,0,0,0,-2.4713,-2.4732,-2.474,-2.4784,-2.4794,-2.4766,-2.4771,-2.488,-2.488,-2.4929,-2.4925,-2.4928,-2.4929,-2.5128,-2.513,-2.52,0,0,0,-2.471,-2.4728,-2.4738,-2.4748,-2.4793,-2.4836,-2.479,-2.4874,-2.4884,-2.4924,-2.4928,-2.4931,-2.5126,-2.5129,-2.5196,-2.5232,0,0,0,-2.4708,-2.4727,-2.474,-2.4749,-2.4778,-2.4835,-2.4841,-2.4876,-2.4882,-2.4926,-2.4931,-2.5125,-2.5128,-2.5191,-2.5225,-2.529,0,0,0,-2.4712,-2.4804,-2.4741,-2.4844,-2.4778,-2.4876,-2.484,-2.4914,-2.4959,-2.4928,-2.5126,-2.5129,-2.519,-2.5221,-2.5285,-2.5347,-2.5373,0,0,-2.4836,-2.482,-2.4879,-2.4825,-2.4937,-2.4864,-2.499,-2.5021,-2.5015,-2.5094,-2.5099,-2.5197,-2.5225,-2.5289,-2.5517,-2.5538,0,0,0,-2.4923,-2.4966,-2.4993,-2.5034,-2.5057,-2.5082,-2.5091,-2.5104,-2.5169,-2.5056,-2.5238,-2.5254,-2.5291,-2.532,-2.5338,-2.537,-2.5143,-2.5143,-2.5142,-2.5121,-2.5104,-2.5202,-2.5195,-2.5238,-2.5247,-2.5281,-2.53,-2.5274,-2.5318,-2.5341,-2.5481,-2.5515,-2.5528,-2.5562,-2.5373,-2.5373,-2.5373,-2.5373,-2.5302,-2.5361,-2.5322,-2.5403,-2.5388,-2.5459,-2.5474,-2.5454,-2.5521,-2.5462,-2.5494,-2.5431,-2.5552,-2.5581,-2.5378,-2.5378,-2.5377,-2.5376,-2.5376,-2.5429,-2.5454,-2.5465,-2.5525,-2.5575,-2.5568,-2.5633,-2.5618,-2.5606,-2.5638,-2.5662,-2.5661,-2.5659,-2.565,-2.5651,-2.5651,-2.5652,-2.5652,-2.5652,-2.5557,-2.5567,-2.562,-2.5653,-2.5679,-2.5713,-2.5726,-2.5753,-2.5781,-2.5766,-2.5766,-2.5738,-2.5565,-2.5523,-2.566,-2.5659,-2.5658,-2.5657,-2.5656,-2.5747,-2.5701,-2.5784,-2.581,-2.585,-2.5902,-2.5882,-2.594,-2.5962,-2.5996,-2.5961,-2.5836,-2.5819,-2.5805,-2.5769,-2.5962,-2.5962,-2.5962,-2.5962,-2.5854,-2.5843,-2.5925,-2.5968,-2.6009,-2.6,-2.6101,-2.6114,-2.6122,-2.6135,-2.6106,-2.6058,-2.6044,-2.6036,-2.6016,-2.5983,-2.6226,-2.6226,-2.6227,-2.597,-2.5963,-2.6047,-2.6049,-2.608,-2.6109,-2.6203,-2.626,-2.6261,-2.6237,-2.6146,-2.6135,-2.6058,-2.6033,-2.6006,-2.5976,-2.5915,0,0]},{"header":{"parameterUnit":"m.s-1","parameterCategory":1,"la1":30.2992,"la2":30.254,"lo1":-89.0895,"lo2":-89.0443,"dy":0.0025,"dx":0.0025,"nx":19,"ny":19,"refTime":"2026-03-25T09:00:00:Z","depth":0,"parameterNumber":3,"parameterNumberName":"V-component_of_WINDS"},"data":[0,0,0,0.2432,0.243,0.2346,0.2345,0.2241,0.224,0,0,0,0,0,0,0,0,0,0,0,0.2461,0.2461,0.2432,0.243,0.2346,0.2345,0.2241,0.224,0,0,0,0,0,0,0,0,0,0,0,0.2461,0.2461,0.246,0.243,0.2346,0.2345,0.2241,0.2303,0,0,0,0,0,0,0,0,0,0,0.2384,0.2416,0.2461,0.246,0.2429,0.2346,0.2345,0.2306,0.2299,0.2281,0,0.2268,0,0.2253,0.2234,0.2233,0,0,0,0.2426,0.2421,0.2395,0.246,0.2429,0.2346,0.2383,0.2302,0.2295,0.2273,0.2267,0.2263,0.2251,0.2233,0.2232,0.2147,0.2147,0,0,0.2431,0.2447,0.2401,0.2391,0.2406,0.2386,0.238,0.2298,0.2291,0.2266,0.226,0.2249,0.2232,0.2231,0.2148,0.2147,0,0,0,0.2447,0.2451,0.2427,0.2395,0.238,0.2383,0.2377,0.2295,0.2286,0.2259,0.2248,0.2232,0.223,0.2148,0.2148,0.2154,0,0,0,0.245,0.246,0.2429,0.2438,0.2382,0.2337,0.2377,0.2292,0.2282,0.2249,0.2232,0.223,0.2148,0.2148,0.2154,0.2154,0,0,0,0.2465,0.2462,0.2451,0.2439,0.2404,0.2338,0.2324,0.2289,0.2275,0.2233,0.2229,0.2148,0.2148,0.2155,0.2154,0.2137,0,0,0,0.2485,0.2456,0.2452,0.2415,0.2404,0.2343,0.2324,0.2277,0.2241,0.2231,0.2148,0.2148,0.2155,0.2155,0.2138,0.2126,0.2123,0,0,0.2457,0.2453,0.243,0.2424,0.2368,0.2355,0.2299,0.2249,0.2229,0.2175,0.2173,0.2154,0.2154,0.2137,0.2099,0.2097,0,0,0,0.2427,0.2411,0.2392,0.2361,0.2324,0.2293,0.2251,0.2232,0.2187,0.2206,0.2143,0.2142,0.2132,0.2125,0.2123,0.2113,0.2145,0.2145,0.2146,0.2409,0.2388,0.2348,0.2317,0.2286,0.2245,0.2218,0.2186,0.217,0.2156,0.214,0.212,0.2113,0.2111,0.2101,0.2132,0.2132,0.2132,0.2132,0.2366,0.234,0.2324,0.228,0.2256,0.2218,0.2177,0.2168,0.2128,0.2129,0.2119,0.2122,0.2109,0.2099,0.2132,0.2132,0.2132,0.2132,0.2132,0.2353,0.2336,0.2317,0.2271,0.2237,0.2205,0.2169,0.2148,0.2128,0.2118,0.2099,0.2099,0.2096,0.211,0.211,0.211,0.211,0.211,0.211,0.2346,0.2324,0.2298,0.2258,0.2237,0.2205,0.2164,0.2141,0.211,0.2097,0.2097,0.2083,0.2113,0.2121,0.2109,0.2109,0.2109,0.2109,0.2109,0.2311,0.2316,0.2275,0.2254,0.2206,0.2175,0.215,0.2105,0.2083,0.2066,0.2055,0.208,0.2073,0.2075,0.2081,0.206,0.206,0.206,0.206,0.2299,0.2295,0.2249,0.2217,0.2182,0.2156,0.2109,0.2077,0.2044,0.2029,0.2029,0.2036,0.2038,0.203,0.2032,0.2038,0.2006,0.2006,0.2005,0.2277,0.2268,0.2233,0.2205,0.2167,0.2134,0.209,0.2051,0.2014,0.2003,0.2016,0.2018,0.2029,0.2034,0.2022,0.2026,0.2036,0,0]}]]